INTELSAT 16 (IS-16)

Last updated on Tue Jul 01 2025 00:02:45 GMT+0000 (Coordinated Universal Time)

1 36397U 10006A 25181.55276347 -.00000245 00000+0 00000+0 0 9991 2 36397 0.0132 326.7206 0001998 143.6050 291.3182 1.00272920 56121
UTC large
Height (km)
Speed (km/s)
/
Latitude / Longitude
Inclination (degrees)
Orbital Period (minutes)
Azimuth
Elevation
Range (km)
Doppler Factor

Next 0 passes for location: London (51.5072 / 0.1276)

Sorry there are no passes over London.